Вернуться в каталог

STARLINK-2367

АктивенСвязьVLEO
NORAD 47907·PAYLOAD·🇺🇸 United States

Запущен Mar 14, 2021 с Cape Canaveral Space Force Station

Loading…

Ближайшие Пролёты (ближайшие 24 часа)

TLE

СвежийSource: CelesTrak SupGP

Эпоха: Sep 14, 2026, 20:30 UTC

1 47907C 21021AZ  26257.85465278 -.00023364  00000+0 -75151-3 0  2578
2 47907  53.1570 120.7950 0001155  83.7357 359.3001 15.31705727    19

Отслеживайте STARLINK-2367 в реальном времени с AllMySat

Download on the App Store